User: anonymous   Login
Location: Houston
(29.7631°N, 95.3631°W)
Time: 06:08:02
(UTC-05:00)
Language:

ZACube-1 - Orbit

View from above orbital plane
View from above orbital plane
View from above satellite
View from above satellite

Ground track
Ground track

The orbit data is extracted from the following two-line orbital elements,

1 39417U 13066B   19140.85758832  .00000173  00000-0  27961-4 0  9991
2 39417  97.5637 155.9784 0060273 127.6305 233.0400 14.81102054296773
Epoch (UTC): 20 May 2019 20:34:55
Eccentricity: 0.0060273
inclination: 97.5637°
perigee height: 583 km
apogee height: 668 km
right ascension of ascending node: 155.9784°
argument of perigee: 127.6305°
revolutions per day: 14.81102054
mean anomaly at epoch: 233.0400°
orbit number at epoch: 29677

The dashed part of the orbit path shows where the satellite is in the earth's shadow,  

DLR